YEML

Details ICAO YEML (EMD)
Name Emerald
Region Australia
Timezone Australia/Brisbane (UTC+10.0)
Plans Departing 164
Arriving 159
Stats Elevation 623 ft / 190 m (AMSL)
Location -23.568300° 148.178000°
Runways 2
Magnetic Variation 8.594° E
Sunrise 2020-01-27 19:43:50 UTC / 2020-01-28 05:43:50 Local
Sunset 2020-01-28 08:58:34 UTC / 2020-01-28 18:58:34 Local
Advertisement - Login to hide

Runways

ID Width Length Bearing (true/mag) Surface Threshold Overrun Markings Lighting
06 98 ft / 30 m 6,224 ft / 1,897 m 70.40° / 61.81° ASPHALT 0 ft / 0 m 98 ft / 30 m APP EDGE THRESHOLD
15 62 ft / 19 m 2,312 ft / 705 m 151.69° / 143.09° ASPHALT 0 ft / 0 m 0 ft / 0 m VISUAL
24 98 ft / 30 m 6,224 ft / 1,897 m 250.40° / 241.80° ASPHALT 0 ft / 0 m 102 ft / 31 m APP EDGE THRESHOLD
33 62 ft / 19 m 2,312 ft / 705 m 331.69° / 323.09° ASPHALT 0 ft / 0 m 0 ft / 0 m NONE

Map

Weather


0- 5 10 15 20 25 30 35+ Temperature / °C

Clouds and Precipitation
Forecast for 2020-01-28 12:00 UTC. Updated an hour ago

Ground ~20,000 ft ~40,000 ft Winds

METAR

YEML 281000Z AUTO 05011KT 9999 // OVC120 25/23 Q1012

TAF

Not found

Frequencies

Unicom 120.60 MHz ACTIVATE LIGHTS ONLY MULT
Unicom 122.30 MHz BRISBANE CENTRE MULT
Unicom 126.70 MHz EMRALD MULT
Warning: Do not use this data for real-world aviation or navigation. No guarantee of current accuracy is given.